Time,TemperatureF,DewpointF,PressureIn,WindDirection,WindDirectionDegrees,WindSpeedMPH,WindSpeedGustMPH,Humidity,HourlyPrecipIn,Conditions,Clouds,dailyrainin,SoftwareType,DateUTC
2015-05-29 00:02:00,65.4,59.4,29.93,SSE,150,0.0,6.0,81,0.00,,---,0.00,VWS V15.00,2015-05-29 05:02:00,
2015-05-29 00:07:00,65.3,59.3,29.93,SSE,150,0.0,6.0,81,0.00,,---,0.00,VWS V15.00,2015-05-29 05:07:00,
2015-05-29 00:12:00,65.2,59.2,29.93,SSE,151,0.0,6.0,81,0.00,,---,0.00,VWS V15.00,2015-05-29 05:12:00,
2015-05-29 00:17:00,65.0,59.0,29.93,SSE,161,0.0,6.0,81,0.00,,---,0.00,VWS V15.00,2015-05-29 05:17:00,
2015-05-29 00:22:00,64.9,58.9,29.93,SSE,157,2.0,6.0,81,0.00,,---,0.00,VWS V15.00,2015-05-29 05:22:00,
2015-05-29 00:27:00,64.9,58.9,29.93,SSE,148,0.0,6.0,81,0.00,,---,0.00,VWS V15.00,2015-05-29 05:27:00,
2015-05-29 00:32:00,64.8,58.5,29.93,SSE,168,0.0,2.0,80,0.00,,---,0.00,VWS V15.00,2015-05-29 05:32:00,
2015-05-29 00:37:00,64.7,58.4,29.93,SSE,153,0.0,5.0,80,0.00,,---,0.00,VWS V15.00,2015-05-29 05:37:00,
2015-05-29 00:42:00,64.6,58.3,29.93,SSE,153,0.0,5.0,80,0.00,,---,0.00,VWS V15.00,2015-05-29 05:42:00,
2015-05-29 00:47:00,64.5,58.2,29.93,SSE,153,2.0,5.0,80,0.00,,---,0.00,VWS V15.00,2015-05-29 05:47:00,
2015-05-29 00:52:00,64.5,58.2,29.92,SSE,163,1.0,5.0,80,0.00,,---,0.00,VWS V15.00,2015-05-29 05:52:00,
2015-05-29 00:57:00,64.4,58.1,29.92,SE,137,1.0,5.0,80,0.00,,---,0.00,VWS V15.00,2015-05-29 05:57:00,
2015-05-29 01:02:00,64.3,57.7,29.92,SSE,164,2.0,4.0,79,0.00,,---,0.00,VWS V15.00,2015-05-29 06:02:00,
2015-05-29 01:07:00,64.2,57.6,29.92,SSE,165,2.0,5.0,79,0.00,,---,0.00,VWS V15.00,2015-05-29 06:07:00,
2015-05-29 01:12:00,64.2,57.6,29.92,South,169,0.0,5.0,79,0.00,,---,0.00,VWS V15.00,2015-05-29 06:12:00,
2015-05-29 01:17:00,64.1,57.5,29.92,SSE,154,3.0,6.0,79,0.00,,---,0.00,VWS V15.00,2015-05-29 06:17:00,
2015-05-29 01:22:00,64.1,57.5,29.92,SSE,155,0.0,6.0,79,0.00,,---,0.00,VWS V15.00,2015-05-29 06:22:00,
2015-05-29 01:27:00,64.1,57.5,29.93,SSE,163,2.0,6.0,79,0.00,,---,0.00,VWS V15.00,2015-05-29 06:27:00,
2015-05-29 01:32:00,64.0,57.0,29.92,South,176,0.0,6.0,78,0.00,,---,0.00,VWS V15.00,2015-05-29 06:32:00,
2015-05-29 01:37:00,64.0,57.0,29.93,South,175,0.0,6.0,78,0.00,,---,0.00,VWS V15.00,2015-05-29 06:37:00,
2015-05-29 01:42:00,63.9,56.9,29.93,SSE,153,0.0,6.0,78,0.00,,---,0.00,VWS V15.00,2015-05-29 06:42:00,
2015-05-29 01:47:00,63.8,56.8,29.93,SSE,167,2.0,6.0,78,0.00,,---,0.00,VWS V15.00,2015-05-29 06:47:00,
2015-05-29 01:52:00,63.8,56.8,29.92,SE,126,4.0,6.0,78,0.00,,---,0.00,VWS V15.00,2015-05-29 06:52:00,
2015-05-29 01:57:00,63.8,56.8,29.92,SE,146,0.0,6.0,78,0.00,,---,0.00,VWS V15.00,2015-05-29 06:57:00,
2015-05-29 02:02:00,63.8,56.8,29.92,SSE,148,0.0,6.0,78,0.00,,---,0.00,VWS V15.00,2015-05-29 07:02:00,
2015-05-29 02:07:00,63.7,56.7,29.92,SSE,151,0.0,6.0,78,0.00,,---,0.00,VWS V15.00,2015-05-29 07:07:00,
2015-05-29 02:12:00,63.7,56.7,29.92,SSE,158,4.0,6.0,78,0.00,,---,0.00,VWS V15.00,2015-05-29 07:12:00,
2015-05-29 02:17:00,63.6,56.6,29.92,SSE,158,0.0,6.0,78,0.00,,---,0.00,VWS V15.00,2015-05-29 07:17:00,
2015-05-29 02:22:00,63.6,56.6,29.92,SSE,159,0.0,6.0,78,0.00,,---,0.00,VWS V15.00,2015-05-29 07:22:00,
2015-05-29 02:27:00,63.5,56.5,29.93,SSE,158,0.0,6.0,78,0.00,,---,0.00,VWS V15.00,2015-05-29 07:27:00,
2015-05-29 02:32:00,63.4,56.4,29.92,SSE,159,0.0,3.0,78,0.00,,---,0.00,VWS V15.00,2015-05-29 07:32:00,
2015-05-29 02:37:00,63.3,56.3,29.92,SSE,159,0.0,3.0,78,0.00,,---,0.00,VWS V15.00,2015-05-29 07:37:00,
2015-05-29 02:42:00,63.3,56.3,29.92,SSE,159,0.0,3.0,78,0.00,,---,0.00,VWS V15.00,2015-05-29 07:42:00,
2015-05-29 02:47:00,63.1,56.1,29.92,SSE,159,0.0,3.0,78,0.00,,---,0.00,VWS V15.00,2015-05-29 07:47:00,
2015-05-29 02:52:00,63.1,56.1,29.92,SSE,159,0.0,3.0,78,0.00,,---,0.00,VWS V15.00,2015-05-29 07:52:00,
2015-05-29 02:57:00,63.0,56.0,29.92,SSE,159,0.0,3.0,78,0.00,,---,0.00,VWS V15.00,2015-05-29 07:57:00,
2015-05-29 03:02:00,62.9,55.9,29.92,SSE,159,0.0,0.0,78,0.00,,---,0.00,VWS V15.00,2015-05-29 08:02:00,
2015-05-29 03:07:00,62.8,55.8,29.92,SSE,159,0.0,1.0,78,0.00,,---,0.00,VWS V15.00,2015-05-29 08:07:00,
2015-05-29 03:12:00,62.7,55.8,29.92,SSE,159,0.0,1.0,78,0.00,,---,0.00,VWS V15.00,2015-05-29 08:12:00,
2015-05-29 03:17:00,62.6,56.3,29.92,SSE,159,0.0,1.0,80,0.00,,---,0.00,VWS V15.00,2015-05-29 08:17:00,
2015-05-29 03:22:00,62.4,55.5,29.92,SSE,159,0.0,1.0,78,0.00,,---,0.00,VWS V15.00,2015-05-29 08:22:00,
2015-05-29 03:27:00,62.3,55.4,29.92,SSE,159,0.0,1.0,78,0.00,,---,0.00,VWS V15.00,2015-05-29 08:27:00,
2015-05-29 03:32:00,62.2,55.3,29.92,SSE,159,0.0,0.0,78,0.00,,---,0.00,VWS V15.00,2015-05-29 08:32:00,
2015-05-29 03:37:00,62.1,55.2,29.91,SSE,159,0.0,1.0,78,0.00,,---,0.00,VWS V15.00,2015-05-29 08:37:00,
2015-05-29 03:42:00,62.0,55.1,29.91,SSE,159,0.0,1.0,78,0.00,,---,0.00,VWS V15.00,2015-05-29 08:42:00,
2015-05-29 03:47:00,61.9,55.0,29.91,SSE,159,0.0,2.0,78,0.00,,---,0.00,VWS V15.00,2015-05-29 08:47:00,
2015-05-29 03:52:00,61.9,54.6,29.91,SSE,158,0.0,4.0,77,0.00,,---,0.00,VWS V15.00,2015-05-29 08:52:00,
2015-05-29 03:57:00,61.9,54.6,29.91,SSE,158,0.0,4.0,77,0.00,,---,0.00,VWS V15.00,2015-05-29 08:57:00,
2015-05-29 04:02:00,61.9,54.6,29.90,SSE,157,2.0,5.0,77,0.00,,---,0.00,VWS V15.00,2015-05-29 09:02:00,
2015-05-29 04:07:00,62.0,54.7,29.90,SSE,157,0.0,5.0,77,0.00,,---,0.00,VWS V15.00,2015-05-29 09:07:00,
2015-05-29 04:12:00,62.0,54.7,29.90,SSE,157,0.0,5.0,77,0.00,,---,0.00,VWS V15.00,2015-05-29 09:12:00,
2015-05-29 04:16:00,62.0,54.7,29.90,SSE,157,0.0,5.0,77,0.00,,---,0.00,VWS V15.00,2015-05-29 09:16:00,
2015-05-29 04:21:00,61.9,54.6,29.90,SSE,157,1.0,5.0,77,0.00,,---,0.00,VWS V15.00,2015-05-29 09:21:00,
2015-05-29 04:26:00,61.9,54.6,29.90,SSE,157,0.0,5.0,77,0.00,,---,0.00,VWS V15.00,2015-05-29 09:26:00,
2015-05-29 04:31:00,61.8,54.2,29.91,SSE,157,0.0,1.0,76,0.00,,---,0.00,VWS V15.00,2015-05-29 09:31:00,
2015-05-29 04:36:00,61.8,54.2,29.91,SSE,157,0.0,3.0,76,0.00,,---,0.00,VWS V15.00,2015-05-29 09:36:00,
2015-05-29 04:41:00,61.8,54.2,29.91,SSE,157,1.0,3.0,76,0.00,,---,0.00,VWS V15.00,2015-05-29 09:41:00,
2015-05-29 04:46:00,61.7,54.1,29.90,SSE,157,0.0,4.0,76,0.00,,---,0.00,VWS V15.00,2015-05-29 09:46:00,
2015-05-29 04:51:00,61.7,54.1,29.90,SSE,157,2.0,4.0,76,0.00,,---,0.00,VWS V15.00,2015-05-29 09:51:00,
2015-05-29 04:56:00,61.7,54.1,29.90,SSE,157,2.0,4.0,76,0.00,,---,0.00,VWS V15.00,2015-05-29 09:56:00,
2015-05-29 05:01:00,61.7,54.1,29.91,SSE,157,0.0,2.0,76,0.00,,---,0.00,VWS V15.00,2015-05-29 10:01:00,
2015-05-29 05:06:00,61.7,54.1,29.91,SSE,157,1.0,5.0,76,0.00,,---,0.00,VWS V15.00,2015-05-29 10:06:00,
2015-05-29 05:11:00,61.8,53.8,29.90,SSE,154,3.0,5.0,75,0.00,,---,0.00,VWS V15.00,2015-05-29 10:11:00,
2015-05-29 05:16:00,61.9,53.9,29.90,SSE,154,0.0,5.0,75,0.00,,---,0.00,VWS V15.00,2015-05-29 10:16:00,
2015-05-29 05:21:00,61.9,53.9,29.90,SSE,154,0.0,5.0,75,0.00,,---,0.00,VWS V15.00,2015-05-29 10:21:00,
2015-05-29 05:26:00,62.0,54.0,29.90,SSE,154,2.0,5.0,75,0.00,,---,0.00,VWS V15.00,2015-05-29 10:26:00,
2015-05-29 05:31:00,62.1,54.1,29.90,SSE,154,0.0,1.0,75,0.00,,---,0.00,VWS V15.00,2015-05-29 10:31:00,
2015-05-29 05:36:00,62.1,54.1,29.90,SSE,155,3.0,4.0,75,0.00,,---,0.00,VWS V15.00,2015-05-29 10:36:00,
2015-05-29 05:41:00,62.1,54.1,29.90,SSE,155,0.0,4.0,75,0.00,,---,0.00,VWS V15.00,2015-05-29 10:41:00,
2015-05-29 05:46:00,62.1,54.1,29.90,SSE,155,0.0,4.0,75,0.00,,---,0.00,VWS V15.00,2015-05-29 10:46:00,
2015-05-29 05:51:00,62.1,54.1,29.90,SSE,155,0.0,4.0,75,0.00,,---,0.00,VWS V15.00,2015-05-29 10:51:00,
2015-05-29 05:56:00,62.1,54.1,29.89,SSE,155,1.0,4.0,75,0.00,,---,0.00,VWS V15.00,2015-05-29 10:56:00,
2015-05-29 06:01:00,62.1,54.1,29.89,SSE,161,2.0,3.0,75,0.00,,---,0.00,VWS V15.00,2015-05-29 11:01:00,
2015-05-29 06:06:00,62.1,53.7,29.89,SSE,165,4.0,6.0,74,0.00,,---,0.00,VWS V15.00,2015-05-29 11:06:00,
2015-05-29 06:11:00,62.2,53.8,29.89,SSE,152,0.0,6.0,74,0.00,,---,0.00,VWS V15.00,2015-05-29 11:11:00,
2015-05-29 06:16:00,62.3,53.9,29.89,SE,135,0.0,6.0,74,0.00,,---,0.00,VWS V15.00,2015-05-29 11:16:00,
2015-05-29 06:21:00,62.4,54.0,29.90,SSE,167,1.0,6.0,74,0.00,,---,0.00,VWS V15.00,2015-05-29 11:21:00,
2015-05-29 06:26:00,62.5,54.1,29.89,SSE,150,2.0,6.0,74,0.00,,---,0.00,VWS V15.00,2015-05-29 11:26:00,
2015-05-29 06:31:00,62.5,54.1,29.89,SSE,150,0.0,3.0,74,0.00,,---,0.00,VWS V15.00,2015-05-29 11:31:00,
2015-05-29 06:36:00,62.6,54.6,29.89,SE,146,0.0,6.0,75,0.00,,---,0.00,VWS V15.00,2015-05-29 11:36:00,
2015-05-29 06:41:00,62.7,54.3,29.89,SE,145,0.0,6.0,74,0.00,,---,0.00,VWS V15.00,2015-05-29 11:41:00,
2015-05-29 06:46:00,62.8,54.4,29.90,SE,145,0.0,6.0,74,0.00,,---,0.00,VWS V15.00,2015-05-29 11:46:00,
2015-05-29 06:51:00,63.0,54.2,29.89,SSE,150,2.0,6.0,73,0.00,,---,0.00,VWS V15.00,2015-05-29 11:51:00,
2015-05-29 06:56:00,63.1,54.3,29.89,SSE,148,0.0,6.0,73,0.00,,---,0.00,VWS V15.00,2015-05-29 11:56:00,
2015-05-29 07:01:00,63.3,54.5,29.89,SSE,148,2.0,3.0,73,0.00,,---,0.00,VWS V15.00,2015-05-29 12:01:00,
2015-05-29 07:06:00,63.4,54.6,29.90,SSE,161,0.0,5.0,73,0.00,,---,0.00,VWS V15.00,2015-05-29 12:06:00,
2015-05-29 07:11:00,63.6,54.8,29.90,SSE,161,0.0,5.0,73,0.00,,---,0.00,VWS V15.00,2015-05-29 12:11:00,
2015-05-29 07:16:00,63.8,55.0,29.91,SSE,161,0.0,5.0,73,0.00,,---,0.00,VWS V15.00,2015-05-29 12:16:00,
2015-05-29 07:21:00,63.9,55.1,29.91,South,169,0.0,5.0,73,0.00,,---,0.00,VWS V15.00,2015-05-29 12:21:00,
2015-05-29 07:26:00,64.1,55.3,29.91,South,169,1.0,5.0,73,0.00,,---,0.00,VWS V15.00,2015-05-29 12:26:00,
2015-05-29 07:31:00,64.3,55.5,29.90,South,190,0.0,1.0,73,0.00,,---,0.00,VWS V15.00,2015-05-29 12:31:00,
2015-05-29 07:36:00,64.5,55.7,29.91,South,170,4.0,6.0,73,0.00,,---,0.00,VWS V15.00,2015-05-29 12:36:00,
2015-05-29 07:41:00,64.8,56.0,29.90,SSE,148,5.0,6.0,73,0.00,,---,0.00,VWS V15.00,2015-05-29 12:41:00,
2015-05-29 07:46:00,64.9,56.0,29.90,SSE,156,5.0,10.0,73,0.00,,---,0.00,VWS V15.00,2015-05-29 12:46:00,
2015-05-29 07:51:00,65.2,56.7,29.91,SSE,154,4.0,10.0,74,0.00,,---,0.00,VWS V15.00,2015-05-29 12:51:00,
2015-05-29 07:56:00,65.4,56.9,29.91,SE,140,3.0,10.0,74,0.00,,---,0.00,VWS V15.00,2015-05-29 12:56:00,
2015-05-29 08:01:00,65.6,57.8,29.91,SSE,155,0.0,1.0,76,0.00,,---,0.00,VWS V15.00,2015-05-29 13:01:00,
2015-05-29 08:06:00,65.7,58.3,29.91,SSE,148,6.0,7.0,77,0.00,,---,0.00,VWS V15.00,2015-05-29 13:06:00,
2015-05-29 08:11:00,65.9,59.2,29.91,South,178,0.0,10.0,79,0.00,,---,0.00,VWS V15.00,2015-05-29 13:11:00,
2015-05-29 08:16:00,66.3,60.3,29.91,South,178,0.0,10.0,81,0.00,,---,0.00,VWS V15.00,2015-05-29 13:16:00,
2015-05-29 08:21:00,66.8,61.1,29.91,South,179,0.0,10.0,82,0.00,,---,0.00,VWS V15.00,2015-05-29 13:21:00,
2015-05-29 08:26:00,67.6,62.3,29.91,South,175,2.0,10.0,83,0.00,,---,0.00,VWS V15.00,2015-05-29 13:26:00,
2015-05-29 08:31:00,68.3,63.3,29.91,South,171,2.0,6.0,84,0.00,,---,0.00,VWS V15.00,2015-05-29 13:31:00,
2015-05-29 08:36:00,69.1,64.1,29.91,SE,146,2.0,6.0,84,0.00,,---,0.00,VWS V15.00,2015-05-29 13:36:00,
2015-05-29 08:41:00,69.8,64.8,29.91,SW,231,2.0,7.0,84,0.00,,---,0.00,VWS V15.00,2015-05-29 13:41:00,
2015-05-29 08:46:00,70.2,65.1,29.92,West,261,0.0,7.0,84,0.00,,---,0.00,VWS V15.00,2015-05-29 13:46:00,
2015-05-29 08:51:00,70.6,65.5,29.91,SSE,163,0.0,7.0,84,0.00,,---,0.00,VWS V15.00,2015-05-29 13:51:00,
2015-05-29 08:56:00,70.9,65.8,29.91,SSE,159,1.0,7.0,84,0.00,,---,0.00,VWS V15.00,2015-05-29 13:56:00,
2015-05-29 09:01:00,71.0,65.6,29.92,SE,132,0.0,8.0,83,0.00,,---,0.00,VWS V15.00,2015-05-29 14:01:00,
2015-05-29 09:06:00,70.9,65.5,29.92,South,171,0.0,8.0,83,0.00,,---,0.00,VWS V15.00,2015-05-29 14:06:00,
2015-05-29 09:11:00,70.9,65.5,29.92,SSE,148,0.0,8.0,83,0.00,,---,0.00,VWS V15.00,2015-05-29 14:11:00,
2015-05-29 09:16:00,70.8,65.4,29.92,WSW,242,0.0,9.0,83,0.00,,---,0.00,VWS V15.00,2015-05-29 14:16:00,
2015-05-29 09:21:00,70.7,65.3,29.92,SSE,147,3.0,9.0,83,0.00,,---,0.00,VWS V15.00,2015-05-29 14:21:00,
2015-05-29 09:26:00,70.8,65.7,29.92,SSE,161,0.0,9.0,84,0.00,,---,0.00,VWS V15.00,2015-05-29 14:26:00,
2015-05-29 09:31:00,70.9,65.8,29.92,SW,232,0.0,3.0,84,0.00,,---,0.00,VWS V15.00,2015-05-29 14:31:00,
2015-05-29 09:36:00,71.0,65.9,29.92,SSE,155,0.0,7.0,84,0.00,,---,0.00,VWS V15.00,2015-05-29 14:36:00,
2015-05-29 09:40:00,71.1,65.7,29.92,SSE,167,0.0,7.0,83,0.00,,---,0.00,VWS V15.00,2015-05-29 14:40:00,
2015-05-29 09:45:00,71.3,65.9,29.92,SSE,154,4.0,7.0,83,0.00,,---,0.00,VWS V15.00,2015-05-29 14:45:00,
2015-05-29 09:50:00,71.4,66.0,29.92,SE,140,5.0,7.0,83,0.00,,---,0.00,VWS V15.00,2015-05-29 14:50:00,
2015-05-29 09:55:00,71.5,66.1,29.92,SSE,161,3.0,7.0,83,0.00,,---,0.00,VWS V15.00,2015-05-29 14:55:00,
2015-05-29 10:00:00,71.7,66.3,29.92,SE,139,5.0,7.0,83,0.00,,---,0.00,VWS V15.00,2015-05-29 15:00:00,
2015-05-29 10:05:00,71.9,66.1,29.92,SSE,152,0.0,7.0,82,0.00,,---,0.00,VWS V15.00,2015-05-29 15:05:00,
2015-05-29 10:10:00,72.0,66.2,29.92,SE,146,2.0,7.0,82,0.00,,---,0.00,VWS V15.00,2015-05-29 15:10:00,
2015-05-29 10:15:00,72.1,66.3,29.92,SSE,147,0.0,7.0,82,0.00,,---,0.00,VWS V15.00,2015-05-29 15:15:00,
2015-05-29 10:20:00,72.2,66.4,29.92,SSE,156,0.0,7.0,82,0.00,,---,0.00,VWS V15.00,2015-05-29 15:20:00,
2015-05-29 10:25:00,72.3,66.5,29.92,SSE,153,2.0,7.0,82,0.00,,---,0.00,VWS V15.00,2015-05-29 15:25:00,
2015-05-29 10:30:00,72.5,66.7,29.91,NW,304,0.0,0.0,82,0.00,,---,0.00,VWS V15.00,2015-05-29 15:30:00,
2015-05-29 10:35:00,72.7,67.2,29.91,NW,304,0.0,0.0,83,0.00,,---,0.00,VWS V15.00,2015-05-29 15:35:00,
2015-05-29 10:40:00,72.9,67.1,29.91,South,186,0.0,4.0,82,0.00,,---,0.00,VWS V15.00,2015-05-29 15:40:00,
2015-05-29 10:45:00,73.3,67.5,29.91,South,186,0.0,4.0,82,0.00,,---,0.00,VWS V15.00,2015-05-29 15:45:00,
2015-05-29 10:50:00,73.7,67.5,29.91,SSE,150,0.0,6.0,81,0.00,,---,0.00,VWS V15.00,2015-05-29 15:50:00,
2015-05-29 10:55:00,73.9,67.3,29.91,SSE,157,0.0,6.0,80,0.00,,---,0.00,VWS V15.00,2015-05-29 15:55:00,
2015-05-29 11:00:00,74.4,67.5,29.91,SSE,157,0.0,0.0,79,0.00,,---,0.00,VWS V15.00,2015-05-29 16:00:00,
2015-05-29 11:05:00,74.8,67.5,29.90,SSE,153,0.0,7.0,78,0.00,,---,0.00,VWS V15.00,2015-05-29 16:05:00,
2015-05-29 11:10:00,75.5,67.8,29.90,SSE,162,0.0,7.0,77,0.00,,---,0.00,VWS V15.00,2015-05-29 16:10:00,
2015-05-29 11:15:00,76.1,67.6,29.90,South,174,3.0,7.0,75,0.00,,---,0.00,VWS V15.00,2015-05-29 16:15:00,
2015-05-29 11:20:00,76.6,67.7,29.90,SSE,161,0.0,7.0,74,0.00,,---,0.00,VWS V15.00,2015-05-29 16:20:00,
2015-05-29 11:25:00,76.9,67.6,29.90,SSE,161,0.0,7.0,73,0.00,,---,0.00,VWS V15.00,2015-05-29 16:25:00,
2015-05-29 11:30:00,77.0,67.3,29.90,SSE,157,0.0,2.0,72,0.00,,---,0.00,VWS V15.00,2015-05-29 16:30:00,
2015-05-29 11:35:00,77.0,67.7,29.90,SE,144,6.0,7.0,73,0.00,,---,0.00,VWS V15.00,2015-05-29 16:35:00,
2015-05-29 11:40:00,77.0,67.7,29.91,SSE,159,3.0,7.0,73,0.00,,---,0.00,VWS V15.00,2015-05-29 16:40:00,
2015-05-29 11:45:00,76.8,67.5,29.91,SSE,150,0.0,7.0,73,0.00,,---,0.00,VWS V15.00,2015-05-29 16:45:00,
2015-05-29 11:50:00,76.8,67.5,29.90,SE,130,3.0,7.0,73,0.00,,---,0.00,VWS V15.00,2015-05-29 16:50:00,